Content
SEND FEEDBACK

Daily
Averages
Monthly
Summary
United States of America

KANAB, UTAH


Home > North America > United States > Utah
Elevation: 4530 feet     Latitude: 37 06N     Longitude: 111 46W

WEATHER
 
SELECT A DAY
Number of Records: 196,770;   Date Range: 1/1/95 - 10/1/14
 
SHARE

PRINT THIS DATA

[ ← Previous Day ]
WEATHER ALMANAC - MARCH 12, 2013
[ Next Day → ]
[ °C ]   °F
Weather ElementAverageHighLow
Temperature52.1 °F64 °F (4:53 pm)39.9 °F (5:53 am)
Dewpoint28.4 °F33.1 °F (9:53 am)26.1 °F (4:53 pm)
Humidity42 %65 % (5:53 am)24 % (4:53 pm)
Barometer30.15 in30.21 in (8:53 am)30.09 in (2:53 am)
Wind Speed3.5 mph10.4 mph (2:53 pm)
Weather ElementAverage
Visibility9.7 mi
Wind DirectionENE (63.9 °)

Weather ElementTotal
Precipitation---
Heating Degree Days13.1 (Base 65)
Growing Degree Days2 (Base 50)
Averaged from 23 records on March 12, 2013
WEATHER CONDITIONS BREAKOUT
WIND DIRECTION BREAKOUT
WEATHER BY HOUR - MARCH 12, 2013
[ °C ]   °F
Local TimeTemperatureDewpointHumidityBarometerVisibilityWind DirectionWind SpeedGust SpeedPrecipitationEventsConditions
1:53 AM45.0 °F27.0 °F49 %30.11 in9.0 miCalmClear
2:53 AM44.1 °F27.0 °F51 %30.09 in10.0 miSouth (180°)3.5 mphClear
3:53 AM43.0 °F27.0 °F53 %30.11 in10.0 miWSW (250°)3.5 mphClear
4:53 AM41.0 °F28.9 °F62 %30.12 in10.0 miWSW (240°)3.5 mphClear
5:53 AM39.9 °F28.9 °F65 %30.16 in10.0 miCalmClear
6:53 AM41.0 °F28.0 °F60 %30.17 in10.0 miWSW (250°)3.5 mphClear
7:53 AM46.0 °F28.9 °F51 %30.18 in10.0 miCalmClear
8:53 AM48.9 °F32.0 °F52 %30.21 in10.0 miENE (60°)4.6 mphClear
9:53 AM52.0 °F33.1 °F49 %30.21 in10.0 miVariable3.5 mphClear
10:53 AM53.1 °F28.0 °F38 %30.21 in10.0 miNorth (10°)4.6 mphClear
11:53 AM55.9 °F28.0 °F34 %30.19 in10.0 miNorth (10°)5.8 mphClear
12:53 PM59.0 °F28.9 °F32 %30.17 in10.0 miNNE (20°)6.9 mphClear
1:53 PM61.0 °F28.0 °F29 %30.14 in10.0 miNE (40°)6.9 mphClear
2:53 PM63.0 °F27.0 °F26 %30.12 in10.0 miNE (40°)10.4 mphClear
3:53 PM63.0 °F27.0 °F26 %30.12 in10.0 miNE (40°)8.1 mphClear
4:53 PM64.0 °F26.1 °F24 %30.11 in10.0 miNE (50°)8.1 mphClear
5:53 PM62.1 °F27.0 °F26 %30.12 in10.0 miNE (50°)4.6 mphClear
6:53 PM57.9 °F28.0 °F32 %30.13 in10.0 miCalmClear
7:53 PM55.0 °F28.0 °F35 %30.14 in9.0 miCalmClear
8:53 PM52.0 °F28.9 °F41 %30.16 in10.0 miSW (230°)3.5 mphClear
9:53 PM52.0 °F30.0 °F43 %30.18 in10.0 miCalmClear
10:53 PM51.1 °F28.9 °F43 %30.20 in10.0 miCalmClear
11:53 PM48.9 °F28.9 °F46 %30.19 in6.0 miCalmHaze
Hourly data recorded from KPGA, located miles away from Kanab, Utah







STORIES FROM OUR PARTNERS